Location: Newark
(51.3318°N, 0.0053°E)
Time: 22:18:47
(UTC+00:00)

DIWATA 2B (PO-101) - Pass Details

Date: 05 July 2022
Orbit: 583 x 599 km, 98.0° (Epoch: 16 August)

Event Time Altitude Azimuth Distance (km) Brightness Sun altitude
Exits shadow 02:13:01 13° 190° (S) 1,728 ? -10.7°
Maximum altitude 02:16:32 45° 261° (W) 820 ? -10.4°
Drops below altitude 10° 02:20:37 10° 335° (NNW) 1,952 ? -10.1°
Sets 02:22:52 0° 341° (NNW) 2,858 ? -9.9°
